CCA1211 ZUCK-RKSI

Flight info

Callsign CCA1211
Flight time 3h 4m
Altitude 41100
Route OVNUL6Y OVNUL W677 IGIRO W4 LIMGI W175 AVKES G212 VYK W34 VAPGU W100 ORAVA W201 UNSEK A326 DONVO G597 AGAVO/N0487F410 Y644 REBIT REBIT1Y
Aircraft A359/H-SDE2E3GHIJ3J4J5LM1ORWXY/LB1D1

Departure

Time 2026-04-24 08:09
Airport Chongqing Jiangbei International Airport (ZUCK)

Arrival

Time 2026-04-24 11:13
Airport Incheon International Airport (RKSI)
Time Latitude Longitude Altitude Speed Heading
2026-04-24 07:01 29.71656 106.65145 1358 ft 0 kts 267°
2026-04-24 07:55 29.71657 106.65153 1357 ft 3 kts 267°
2026-04-24 07:55 29.71658 106.65177 1356 ft 3 kts 267°
2026-04-24 07:55 29.71658 106.65196 1358 ft 3 kts 266°
2026-04-24 07:55 29.71661 106.65218 1355 ft 3 kts 241°
2026-04-24 07:56 29.71670 106.65228 1357 ft 3 kts 179°
2026-04-24 07:56 29.71689 106.65228 1356 ft 3 kts 179°
2026-04-24 07:56 29.71704 106.65228 1355 ft 1 kts 179°
2026-04-24 08:00 29.71684 106.65228 1358 ft 6 kts 179°
2026-04-24 08:01 29.71628 106.65251 1359 ft 12 kts 146°
2026-04-24 08:01 29.71584 106.65349 1356 ft 17 kts 86°
2026-04-24 08:01 29.71668 106.65454 1354 ft 20 kts 26°
2026-04-24 08:01 29.71804 106.65510 1353 ft 22 kts 17°
2026-04-24 08:02 29.71904 106.65546 1355 ft 8 kts 16°
2026-04-24 08:02 29.71945 106.65520 1355 ft 7 kts 304°
2026-04-24 08:02 29.71962 106.65464 1355 ft 9 kts 287°
2026-04-24 08:02 29.71982 106.65386 1355 ft 11 kts 287°
2026-04-24 08:03 29.72007 106.65289 1358 ft 14 kts 285°
2026-04-24 08:03 29.72036 106.65173 1362 ft 16 kts 287°
2026-04-24 08:03 29.72068 106.65052 1363 ft 15 kts 287°
2026-04-24 08:03 29.72016 106.64972 1363 ft 15 kts 196°
2026-04-24 08:04 29.71909 106.64937 1362 ft 17 kts 195°
2026-04-24 08:04 29.71785 106.64895 1364 ft 20 kts 195°
2026-04-24 08:04 29.71645 106.64866 1363 ft 21 kts 182°
2026-04-24 08:04 29.71504 106.64866 1363 ft 19 kts 181°
2026-04-24 08:05 29.71383 106.64838 1365 ft 15 kts 201°
2026-04-24 08:05 29.71284 106.64771 1363 ft 18 kts 218°
2026-04-24 08:05 29.71189 106.64674 1365 ft 13 kts 221°
2026-04-24 08:05 29.71120 106.64604 1365 ft 10 kts 221°
2026-04-24 08:06 29.71062 106.64567 1364 ft 11 kts 198°
2026-04-24 08:06 29.70974 106.64535 1364 ft 15 kts 197°
2026-04-24 08:06 29.70869 106.64498 1364 ft 17 kts 197°
2026-04-24 08:06 29.70743 106.64454 1365 ft 20 kts 197°
2026-04-24 08:07 29.70605 106.64407 1364 ft 22 kts 196°
2026-04-24 08:07 29.70458 106.64357 1366 ft 17 kts 197°
2026-04-24 08:07 29.70428 106.64263 1366 ft 13 kts 287°
2026-04-24 08:07 29.70458 106.64151 1366 ft 16 kts 286°
2026-04-24 08:08 29.70488 106.64077 1365 ft 2 kts 337°
2026-04-24 08:08 29.70515 106.64079 1366 ft 5 kts 14°
2026-04-24 08:08 29.70631 106.64117 1365 ft 46 kts 16°
2026-04-24 08:09 29.72113 106.64634 1365 ft 168 kts 17°
2026-04-24 08:09 29.73270 106.65032 1987 ft 169 kts 18°
2026-04-24 08:09 29.74400 106.65410 2703 ft 171 kts 17°
2026-04-24 08:09 29.75580 106.65820 3144 ft 187 kts 18°
2026-04-24 08:10 29.76903 106.66287 3474 ft 211 kts 18°
2026-04-24 08:10 29.78372 106.66797 3874 ft 228 kts 18°
2026-04-24 08:10 29.79944 106.67345 4234 ft 247 kts 17°
2026-04-24 08:10 29.81657 106.67935 4694 ft 265 kts 17°
2026-04-24 08:11 29.83450 106.68552 5409 ft 270 kts 18°
2026-04-24 08:11 29.85265 106.69180 6241 ft 274 kts 18°
2026-04-24 08:11 29.87096 106.69810 7088 ft 276 kts 18°
2026-04-24 08:11 29.88934 106.70445 8015 ft 277 kts 17°
2026-04-24 08:12 29.90790 106.71086 8936 ft 279 kts 16°
2026-04-24 08:12 29.92659 106.71732 9851 ft 282 kts 16°
2026-04-24 08:12 29.94573 106.72395 10476 ft 295 kts 16°
2026-04-24 08:12 29.96609 106.73105 10873 ft 315 kts 15°
2026-04-24 08:13 29.98773 106.73855 11252 ft 334 kts 15°
2026-04-24 08:13 30.01058 106.74644 11697 ft 349 kts 15°
2026-04-24 08:13 30.03397 106.75451 12370 ft 355 kts 14°
2026-04-24 08:13 30.05780 106.76274 13125 ft 358 kts 14°
2026-04-24 08:14 30.08169 106.77106 13892 ft 361 kts 14°
2026-04-24 08:14 30.10534 106.77929 14502 ft 365 kts 13°
2026-04-24 08:14 30.12987 106.78783 15105 ft 369 kts 13°
2026-04-24 08:14 30.15458 106.79643 15737 ft 374 kts 13°
2026-04-24 08:15 30.17970 106.80520 16367 ft 379 kts 13°
2026-04-24 08:15 30.20467 106.81544 17078 ft 384 kts 19°
2026-04-24 08:15 30.22893 106.82889 17744 ft 390 kts 22°
2026-04-24 08:15 30.25312 106.84321 18350 ft 396 kts 22°
2026-04-24 08:16 30.27777 106.85789 18970 ft 398 kts 22°
2026-04-24 08:16 30.30250 106.87260 19622 ft 400 kts 22°
2026-04-24 08:16 30.32731 106.88735 20288 ft 402 kts 21°
2026-04-24 08:16 30.35232 106.90219 20917 ft 406 kts 21°
2026-04-24 08:17 30.37766 106.91721 21540 ft 411 kts 21°
2026-04-24 08:17 30.40307 106.93228 22185 ft 413 kts 21°
2026-04-24 08:17 30.42864 106.94748 22901 ft 415 kts 21°
2026-04-24 08:17 30.45426 106.96271 23572 ft 418 kts 20°
2026-04-24 08:18 30.48059 106.97837 24118 ft 421 kts 20°
2026-04-24 08:18 30.50672 106.99392 24602 ft 425 kts 20°
2026-04-24 08:18 30.53316 107.00969 25098 ft 429 kts 20°
2026-04-24 08:18 30.55973 107.02583 25598 ft 434 kts 22°
2026-04-24 08:19 30.58557 107.04457 26139 ft 441 kts 26°
2026-04-24 08:19 30.61105 107.06477 26556 ft 447 kts 28°
2026-04-24 08:19 30.63656 107.08584 26981 ft 452 kts 28°
2026-04-24 08:19 30.66203 107.10737 27500 ft 456 kts 29°
2026-04-24 08:20 30.68763 107.12915 28068 ft 457 kts 28°
2026-04-24 08:20 30.71335 107.15105 28596 ft 460 kts 28°
2026-04-24 08:20 30.73936 107.17306 29049 ft 464 kts 28°
2026-04-24 08:20 30.76558 107.19514 29517 ft 467 kts 28°
2026-04-24 08:21 30.79208 107.21738 29987 ft 470 kts 28°
2026-04-24 08:21 30.81871 107.23969 30367 ft 473 kts 28°
2026-04-24 08:21 30.84556 107.26217 30702 ft 477 kts 28°
2026-04-24 08:21 30.87222 107.28451 31017 ft 481 kts 28°
2026-04-24 08:22 30.89946 107.30735 31389 ft 483 kts 28°
2026-04-24 08:22 30.92673 107.33028 31836 ft 483 kts 28°
2026-04-24 08:22 30.95410 107.35330 32144 ft 486 kts 28°
2026-04-24 08:22 30.98153 107.37636 32414 ft 490 kts 28°
2026-04-24 08:23 31.00912 107.39957 32768 ft 491 kts 28°
2026-04-24 08:23 31.03705 107.42268 33024 ft 491 kts 26°
2026-04-24 08:23 31.06625 107.44308 33393 ft 487 kts 22°
2026-04-24 08:23 31.09571 107.46265 33836 ft 486 kts 22°
2026-04-24 08:24 31.12517 107.48187 34231 ft 485 kts 21°
2026-04-24 08:24 31.15453 107.50087 34639 ft 482 kts 21°
2026-04-24 08:24 31.18386 107.51980 35059 ft 480 kts 21°
2026-04-24 08:24 31.21319 107.53869 35314 ft 482 kts 21°
2026-04-24 08:25 31.24247 107.55757 35572 ft 483 kts 22°
2026-04-24 08:25 31.27198 107.57664 35844 ft 483 kts 22°
2026-04-24 08:25 31.30138 107.59568 36128 ft 484 kts 22°
2026-04-24 08:25 31.33077 107.61475 36393 ft 484 kts 22°
2026-04-24 08:26 31.36012 107.63387 36653 ft 485 kts 22°
2026-04-24 08:26 31.38965 107.65307 36968 ft 484 kts 22°
2026-04-24 08:26 31.41895 107.67213 37335 ft 482 kts 22°
2026-04-24 08:26 31.44834 107.69125 37577 ft 482 kts 22°
2026-04-24 08:27 31.47775 107.71038 37795 ft 483 kts 22°
2026-04-24 08:27 31.50670 107.72924 38028 ft 484 kts 23°
2026-04-24 08:27 31.53607 107.74837 38261 ft 484 kts 23°
2026-04-24 08:28 31.59597 107.78745 38439 ft 490 kts 23°
2026-04-24 08:28 31.62523 107.80782 38694 ft 494 kts 28°
2026-04-24 08:28 31.65276 107.83194 38955 ft 494 kts 32°
2026-04-24 08:28 31.67930 107.85680 39162 ft 494 kts 33°
2026-04-24 08:29 31.70602 107.88239 39299 ft 496 kts 33°
2026-04-24 08:29 31.73264 107.90818 39471 ft 496 kts 34°
2026-04-24 08:29 31.75923 107.93409 39621 ft 496 kts 34°
2026-04-24 08:29 31.78583 107.96002 39755 ft 497 kts 34°
2026-04-24 08:30 31.81249 107.98598 39897 ft 497 kts 34°
2026-04-24 08:30 31.83914 108.01194 40075 ft 497 kts 34°
2026-04-24 08:30 31.86575 108.03785 40270 ft 496 kts 33°
2026-04-24 08:30 31.89229 108.06369 40465 ft 495 kts 33°
2026-04-24 08:31 31.91882 108.08954 40596 ft 496 kts 33°
2026-04-24 08:31 31.94547 108.11551 40698 ft 496 kts 33°
2026-04-24 08:31 31.97202 108.14139 40815 ft 497 kts 33°
2026-04-24 08:31 31.99866 108.16739 40934 ft 497 kts 33°
2026-04-24 08:32 32.02535 108.19342 40962 ft 498 kts 33°
2026-04-24 08:32 32.07642 108.24890 40960 ft 506 kts 44°
2026-04-24 08:33 32.11316 108.32057 40965 ft 519 kts 64°
2026-04-24 08:33 32.13804 108.40091 40960 ft 523 kts 67°
2026-04-24 08:34 32.16091 108.48259 40963 ft 525 kts 68°
2026-04-24 08:34 32.17989 108.55058 40964 ft 526 kts 67°
2026-04-24 08:35 32.20926 108.64502 40957 ft 520 kts 58°
2026-04-24 08:35 32.24249 108.70290 40956 ft 506 kts 41°
2026-04-24 08:36 32.29614 108.75404 40966 ft 491 kts 26°
2026-04-24 08:36 32.35431 108.79638 40964 ft 491 kts 24°
2026-04-24 08:37 32.41327 108.83785 40964 ft 493 kts 25°
2026-04-24 08:37 32.47213 108.87973 40954 ft 494 kts 25°
2026-04-24 08:38 32.53099 108.92187 40953 ft 495 kts 25°
2026-04-24 08:38 32.58984 108.96419 40940 ft 495 kts 25°
2026-04-24 08:39 32.64864 109.00663 40927 ft 495 kts 25°
2026-04-24 08:39 32.70704 109.04887 40926 ft 495 kts 25°
2026-04-24 08:40 32.76578 109.09140 40935 ft 494 kts 25°
2026-04-24 08:40 32.82429 109.13382 40941 ft 493 kts 25°
2026-04-24 08:41 32.88298 109.17649 40943 ft 494 kts 25°
2026-04-24 08:41 32.94187 109.21932 40950 ft 499 kts 25°
2026-04-24 08:42 33.00149 109.26267 40948 ft 504 kts 26°
2026-04-24 08:42 33.06150 109.30651 40954 ft 507 kts 26°
2026-04-24 08:43 33.12166 109.35044 40961 ft 508 kts 26°
2026-04-24 08:43 33.18200 109.39459 40958 ft 508 kts 26°
2026-04-24 08:44 33.24215 109.43870 40966 ft 506 kts 26°
2026-04-24 08:44 33.30198 109.48266 40980 ft 505 kts 26°
2026-04-24 08:45 33.35987 109.53133 40971 ft 516 kts 37°
2026-04-24 08:45 33.40415 109.59909 41004 ft 531 kts 58°
2026-04-24 08:45 33.41840 109.63993 40991 ft 536 kts 70°
2026-04-24 08:46 33.42646 109.68367 40977 ft 540 kts 78°
2026-04-24 08:46 33.43603 109.77315 40971 ft 542 kts 81°
2026-04-24 08:47 33.44400 109.86278 40972 ft 543 kts 81°
2026-04-24 08:47 33.45223 109.95295 40964 ft 545 kts 81°
2026-04-24 08:48 33.46073 110.04277 40961 ft 544 kts 81°
2026-04-24 08:48 33.46929 110.13321 40957 ft 544 kts 81°
2026-04-24 08:49 33.47776 110.22324 40956 ft 545 kts 81°
2026-04-24 08:49 33.48612 110.31335 40952 ft 545 kts 81°
2026-04-24 08:50 33.49883 110.40267 40955 ft 541 kts 69°
2026-04-24 08:50 33.53187 110.48202 40947 ft 528 kts 49°
2026-04-24 08:50 33.55603 110.51478 40953 ft 521 kts 38°
2026-04-24 08:51 33.58408 110.54161 40947 ft 513 kts 28°
2026-04-24 08:51 33.64643 110.58158 40948 ft 508 kts 20°
2026-04-24 08:52 33.70982 110.61743 40962 ft 508 kts 20°
2026-04-24 08:52 33.77437 110.65372 40956 ft 508 kts 20°
2026-04-24 08:53 33.83787 110.68995 40952 ft 509 kts 20°
2026-04-24 08:53 33.90178 110.72674 40952 ft 509 kts 20°
2026-04-24 08:54 33.96563 110.76360 40970 ft 509 kts 20°
2026-04-24 08:54 34.02932 110.80041 40952 ft 506 kts 20°
2026-04-24 08:55 34.09326 110.83741 40947 ft 507 kts 20°
2026-04-24 08:55 34.15654 110.87405 40938 ft 508 kts 20°
2026-04-24 08:56 34.22023 110.91101 40931 ft 508 kts 21°
2026-04-24 08:56 34.28379 110.94803 40932 ft 507 kts 20°
2026-04-24 08:57 34.34743 110.98508 40917 ft 507 kts 21°
2026-04-24 08:57 34.41168 111.01947 40930 ft 501 kts 12°
2026-04-24 08:58 34.47908 111.03294 40917 ft 487 kts 357°
2026-04-24 08:58 34.54661 111.03433 40916 ft 485 kts 355°
2026-04-24 08:59 34.61410 111.03403 40910 ft 485 kts 355°
2026-04-24 08:59 34.68167 111.03374 40907 ft 485 kts 355°
2026-04-24 09:00 34.74910 111.03371 40907 ft 485 kts 355°
2026-04-24 09:00 34.81663 111.03380 40906 ft 485 kts 355°
2026-04-24 09:01 34.88385 111.03392 40910 ft 485 kts 355°
2026-04-24 09:01 34.95168 111.03407 40903 ft 485 kts 355°
2026-04-24 09:02 35.01857 111.03409 40904 ft 485 kts 355°
2026-04-24 09:02 35.08676 111.03549 40907 ft 489 kts
2026-04-24 09:03 35.15334 111.05491 40913 ft 501 kts 18°
2026-04-24 09:03 35.21731 111.08995 40911 ft 505 kts 21°
2026-04-24 09:04 35.28017 111.12714 40909 ft 505 kts 21°
2026-04-24 09:04 35.34397 111.16506 40941 ft 507 kts 21°
2026-04-24 09:05 35.40708 111.20222 40921 ft 506 kts 21°
2026-04-24 09:05 35.47098 111.23973 40925 ft 506 kts 21°
2026-04-24 09:06 35.53408 111.27682 40936 ft 506 kts 21°
2026-04-24 09:06 35.59757 111.31421 40938 ft 506 kts 21°
2026-04-24 09:07 35.66114 111.35173 40942 ft 506 kts 21°
2026-04-24 09:07 35.75615 111.40795 40962 ft 506 kts 21°
2026-04-24 09:08 35.81957 111.44555 40952 ft 505 kts 21°
2026-04-24 09:08 35.88289 111.48316 40955 ft 505 kts 21°
2026-04-24 09:09 35.94619 111.52083 40958 ft 505 kts 21°
2026-04-24 09:09 36.00932 111.55846 40958 ft 504 kts 22°
2026-04-24 09:10 36.07234 111.59610 40957 ft 503 kts 22°
2026-04-24 09:10 36.13532 111.63378 40955 ft 503 kts 22°
2026-04-24 09:11 36.19848 111.67163 40961 ft 503 kts 22°
2026-04-24 09:11 36.26128 111.70934 40955 ft 502 kts 22°
2026-04-24 09:12 36.32439 111.74730 40957 ft 502 kts 22°
2026-04-24 09:12 36.38731 111.78521 40973 ft 502 kts 22°
2026-04-24 09:13 36.45008 111.82309 40963 ft 502 kts 22°
2026-04-24 09:13 36.51225 111.86067 40965 ft 503 kts 22°
2026-04-24 09:14 36.57548 111.89897 40963 ft 503 kts 22°
2026-04-24 09:14 36.63830 111.93712 40975 ft 502 kts 22°
2026-04-24 09:15 36.70086 111.97543 40972 ft 501 kts 22°
2026-04-24 09:15 36.76324 112.01448 40969 ft 501 kts 22°
2026-04-24 09:16 36.82540 112.05355 40976 ft 501 kts 23°
2026-04-24 09:16 36.88773 112.09278 40975 ft 501 kts 23°
2026-04-24 09:17 36.95017 112.13203 40974 ft 501 kts 23°
2026-04-24 09:17 37.01260 112.17133 40972 ft 503 kts 23°
2026-04-24 09:18 37.07503 112.21070 40969 ft 503 kts 23°
2026-04-24 09:18 37.13764 112.24984 40971 ft 502 kts 21°
2026-04-24 09:19 37.20047 112.28678 40973 ft 501 kts 21°
2026-04-24 09:19 37.26404 112.32386 40955 ft 500 kts 21°
2026-04-24 09:20 37.32655 112.36074 40957 ft 500 kts 21°
2026-04-24 09:20 37.38960 112.39824 40959 ft 500 kts 21°
2026-04-24 09:21 37.45238 112.43571 40952 ft 500 kts 21°
2026-04-24 09:21 37.51434 112.47580 40967 ft 504 kts 29°
2026-04-24 09:22 37.55916 112.52313 40960 ft 512 kts 45°
2026-04-24 09:22 37.60468 112.61181 40970 ft 519 kts 59°
2026-04-24 09:23 37.63723 112.69315 40967 ft 520 kts 61°
2026-04-24 09:23 37.66921 112.77474 40968 ft 520 kts 60°
2026-04-24 09:24 37.69622 112.84296 40961 ft 521 kts 60°
2026-04-24 09:24 37.72879 112.92477 40981 ft 521 kts 60°
2026-04-24 09:25 37.76156 113.00713 40968 ft 521 kts 60°
2026-04-24 09:25 37.79367 113.08828 40982 ft 520 kts 60°
2026-04-24 09:26 37.82602 113.17021 40982 ft 521 kts 60°
2026-04-24 09:26 37.85832 113.25221 40971 ft 521 kts 60°
2026-04-24 09:27 37.89061 113.33441 40963 ft 521 kts 61°
2026-04-24 09:27 37.92278 113.41648 40959 ft 520 kts 61°
2026-04-24 09:28 37.95490 113.49863 40952 ft 521 kts 61°
2026-04-24 09:28 37.98690 113.58106 40950 ft 521 kts 61°
2026-04-24 09:29 38.01875 113.66333 40943 ft 521 kts 61°
2026-04-24 09:29 38.05070 113.74603 40936 ft 521 kts 61°
2026-04-24 09:30 38.08777 113.84230 40923 ft 523 kts 61°
2026-04-24 09:30 38.11415 113.91102 40912 ft 523 kts 61°
2026-04-24 09:31 38.14629 113.99490 40912 ft 523 kts 62°
2026-04-24 09:31 38.17809 114.07807 40901 ft 523 kts 62°
2026-04-24 09:32 38.20986 114.16134 40893 ft 524 kts 62°
2026-04-24 09:32 38.24173 114.24461 40897 ft 524 kts 62°
2026-04-24 09:33 38.27363 114.32813 40889 ft 524 kts 62°
2026-04-24 09:33 38.30543 114.41170 40904 ft 524 kts 62°
2026-04-24 09:34 38.33711 114.49522 40905 ft 524 kts 62°
2026-04-24 09:34 38.36876 114.57893 40908 ft 525 kts 62°
2026-04-24 09:35 38.40019 114.66227 40909 ft 525 kts 62°
2026-04-24 09:35 38.43169 114.74608 40906 ft 525 kts 62°
2026-04-24 09:36 38.46309 114.83014 40903 ft 525 kts 62°
2026-04-24 09:36 38.49448 114.91417 40899 ft 525 kts 62°
2026-04-24 09:37 38.52583 114.99826 40896 ft 524 kts 62°
2026-04-24 09:37 38.55714 115.08249 40911 ft 525 kts 62°
2026-04-24 09:38 38.58820 115.16670 40896 ft 524 kts 62°
2026-04-24 09:38 38.61903 115.25078 40896 ft 523 kts 62°
2026-04-24 09:39 38.65008 115.33524 40893 ft 523 kts 62°
2026-04-24 09:39 38.68112 115.41979 40893 ft 525 kts 62°
2026-04-24 09:40 38.71210 115.50432 40894 ft 525 kts 62°
2026-04-24 09:40 38.74712 115.58504 40894 ft 522 kts 57°
2026-04-24 09:41 38.78402 115.66554 40895 ft 523 kts 57°
2026-04-24 09:41 38.82092 115.74555 40898 ft 523 kts 57°
2026-04-24 09:42 38.85800 115.82627 40895 ft 523 kts 57°
2026-04-24 09:42 38.89480 115.90675 40895 ft 523 kts 57°
2026-04-24 09:43 38.93152 115.98729 40895 ft 523 kts 57°
2026-04-24 09:43 38.96827 116.06811 40901 ft 524 kts 57°
2026-04-24 09:44 39.00495 116.14901 40892 ft 524 kts 57°
2026-04-24 09:44 39.04142 116.22963 40892 ft 524 kts 57°
2026-04-24 09:45 39.07802 116.31071 40892 ft 525 kts 57°
2026-04-24 09:45 39.11474 116.39231 40894 ft 525 kts 57°
2026-04-24 09:46 39.15130 116.47381 40889 ft 524 kts 57°
2026-04-24 09:46 39.17843 116.56125 40888 ft 529 kts 76°
2026-04-24 09:47 39.18334 116.60818 40892 ft 531 kts 87°
2026-04-24 09:47 39.18163 116.65566 40893 ft 531 kts 98°
2026-04-24 09:47 39.16873 116.74962 40886 ft 533 kts 102°
2026-04-24 09:48 39.15355 116.84294 40886 ft 533 kts 102°
2026-04-24 09:48 39.13834 116.93659 40889 ft 534 kts 102°
2026-04-24 09:49 39.12363 117.03031 40889 ft 534 kts 101°
2026-04-24 09:49 39.11116 117.12455 40894 ft 534 kts 99°
2026-04-24 09:50 39.09927 117.21823 40884 ft 534 kts 99°
2026-04-24 09:50 39.08683 117.31312 40884 ft 534 kts 100°
2026-04-24 09:51 39.07871 117.40803 40886 ft 534 kts 92°
2026-04-24 09:51 39.07693 117.50302 40883 ft 535 kts 90°
2026-04-24 09:52 39.07600 117.59881 40886 ft 535 kts 90°
2026-04-24 09:52 39.07503 117.69462 40887 ft 536 kts 90°
2026-04-24 09:53 39.07386 117.79054 40889 ft 536 kts 91°
2026-04-24 09:53 39.07254 117.88633 40889 ft 536 kts 91°
2026-04-24 09:54 39.07113 117.98219 40889 ft 536 kts 91°
2026-04-24 09:54 39.06327 118.07725 40891 ft 535 kts 101°
2026-04-24 09:55 39.04912 118.17128 40888 ft 536 kts 102°
2026-04-24 09:55 39.03403 118.26508 40894 ft 536 kts 102°
2026-04-24 09:56 39.01886 118.35879 40896 ft 536 kts 102°
2026-04-24 09:56 39.00374 118.45258 40899 ft 536 kts 102°
2026-04-24 09:57 38.98858 118.54674 40904 ft 536 kts 102°
2026-04-24 09:57 38.97345 118.63994 40904 ft 536 kts 102°
2026-04-24 09:58 38.95802 118.73433 40906 ft 536 kts 103°
2026-04-24 09:58 38.94262 118.82800 40908 ft 536 kts 103°
2026-04-24 09:59 38.92727 118.92106 40911 ft 536 kts 103°
2026-04-24 09:59 38.91175 119.01464 40910 ft 536 kts 103°
2026-04-24 10:00 38.89620 119.10811 40916 ft 536 kts 103°
2026-04-24 10:00 38.88044 119.20184 40916 ft 536 kts 103°
2026-04-24 10:01 38.86463 119.29545 40915 ft 536 kts 103°
2026-04-24 10:01 38.84876 119.38900 40919 ft 537 kts 103°
2026-04-24 10:02 38.83284 119.48240 40922 ft 537 kts 103°
2026-04-24 10:02 38.81683 119.57587 40922 ft 537 kts 103°
2026-04-24 10:03 38.80072 119.66943 40922 ft 537 kts 104°
2026-04-24 10:03 38.78455 119.76289 40925 ft 537 kts 104°
2026-04-24 10:04 38.76836 119.85631 40924 ft 537 kts 103°
2026-04-24 10:04 38.75284 119.95006 40933 ft 538 kts 103°
2026-04-24 10:05 38.73742 120.04382 40941 ft 538 kts 103°
2026-04-24 10:05 38.71456 120.13421 40934 ft 531 kts 122°
2026-04-24 10:06 38.69373 120.17270 40926 ft 524 kts 135°
2026-04-24 10:06 38.63613 120.22596 40938 ft 506 kts 163°
2026-04-24 10:07 38.57131 120.26055 40949 ft 513 kts 151°
2026-04-24 10:07 38.54345 120.28940 40947 ft 522 kts 137°
2026-04-24 10:07 38.52178 120.32621 40947 ft 530 kts 122°
2026-04-24 10:07 38.50735 120.37018 40946 ft 535 kts 106°
2026-04-24 10:08 38.50184 120.41632 40940 ft 537 kts 91°
2026-04-24 10:08 38.51757 120.50878 40949 ft 535 kts 61°
2026-04-24 10:08 38.53795 120.54831 40954 ft 531 kts 46°
2026-04-24 10:09 38.56419 120.58109 40952 ft 527 kts 38°
2026-04-24 10:09 38.60705 120.63760 40960 ft 534 kts 52°
2026-04-24 10:09 38.62576 120.67884 40958 ft 538 kts 66°
2026-04-24 10:10 38.63655 120.72451 40958 ft 539 kts 80°
2026-04-24 10:10 38.63825 120.78775 40960 ft 537 kts 98°
2026-04-24 10:10 38.63074 120.83414 40960 ft 534 kts 110°
2026-04-24 10:11 38.60348 120.90498 40962 ft 527 kts 129°
2026-04-24 10:11 38.57139 120.95088 40963 ft 519 kts 143°
2026-04-24 10:11 38.55243 120.97026 40963 ft 516 kts 148°
2026-04-24 10:12 38.50163 121.03503 40966 ft 527 kts 130°
2026-04-24 10:12 38.48226 121.07492 40966 ft 532 kts 119°
2026-04-24 10:12 38.46877 121.11908 40970 ft 536 kts 107°
2026-04-24 10:13 38.45154 121.21148 40971 ft 538 kts 103°
2026-04-24 10:13 38.43705 121.30530 40970 ft 539 kts 103°
2026-04-24 10:14 38.42256 121.39917 40973 ft 539 kts 103°
2026-04-24 10:14 38.40757 121.49281 40974 ft 539 kts 103°
2026-04-24 10:15 38.39204 121.58637 40978 ft 539 kts 104°
2026-04-24 10:15 38.37628 121.67983 40979 ft 539 kts 104°
2026-04-24 10:16 38.36051 121.77321 40980 ft 539 kts 104°
2026-04-24 10:16 38.34472 121.86663 40985 ft 540 kts 104°
2026-04-24 10:17 38.32884 121.96017 40985 ft 540 kts 104°
2026-04-24 10:17 38.31298 122.05309 40990 ft 540 kts 104°
2026-04-24 10:18 38.29696 122.14644 40990 ft 540 kts 104°
2026-04-24 10:18 38.28073 122.24058 40999 ft 540 kts 104°
2026-04-24 10:19 38.26598 122.33373 41015 ft 541 kts 102°
2026-04-24 10:19 38.24754 122.42593 41009 ft 536 kts 115°
2026-04-24 10:19 38.23086 122.46795 41009 ft 531 kts 126°
2026-04-24 10:20 38.20880 122.50590 41005 ft 525 kts 134°
2026-04-24 10:20 38.15941 122.57328 41013 ft 524 kts 139°
2026-04-24 10:21 38.10758 122.63839 41015 ft 524 kts 140°
2026-04-24 10:21 38.05593 122.70381 41021 ft 525 kts 139°
2026-04-24 10:22 38.00474 122.76999 41028 ft 526 kts 139°
2026-04-24 10:22 37.95367 122.83628 41035 ft 526 kts 139°
2026-04-24 10:23 37.90256 122.90246 41031 ft 525 kts 139°
2026-04-24 10:23 37.85137 122.96852 41040 ft 526 kts 139°
2026-04-24 10:24 37.80002 123.03461 41038 ft 527 kts 139°
2026-04-24 10:24 37.74857 123.10070 41048 ft 527 kts 139°
2026-04-24 10:25 37.69706 123.16673 41045 ft 527 kts 139°
2026-04-24 10:25 37.64553 123.23265 41056 ft 528 kts 139°
2026-04-24 10:26 37.59391 123.29854 41058 ft 528 kts 139°
2026-04-24 10:26 37.54565 123.36887 41061 ft 532 kts 132°
2026-04-24 10:27 37.50077 123.44311 41066 ft 533 kts 131°
2026-04-24 10:27 37.45660 123.51756 41069 ft 534 kts 130°
2026-04-24 10:28 37.41208 123.59240 41075 ft 534 kts 131°
2026-04-24 10:28 37.36741 123.66705 41074 ft 534 kts 131°
2026-04-24 10:29 37.32267 123.74154 41078 ft 534 kts 131°
2026-04-24 10:29 37.27780 123.81606 41077 ft 534 kts 131°
2026-04-24 10:30 37.23294 123.89039 41080 ft 534 kts 131°
2026-04-24 10:30 37.19177 123.96831 41077 ft 541 kts 119°
2026-04-24 10:30 37.17815 124.01250 41083 ft 546 kts 108°
2026-04-24 10:31 37.17103 124.05934 41081 ft 549 kts 96°
2026-04-24 10:31 37.17052 124.15532 41084 ft 551 kts 88°
2026-04-24 10:32 37.17485 124.25140 41077 ft 552 kts 87°
2026-04-24 10:32 37.17864 124.34766 41082 ft 553 kts 89°
2026-04-24 10:33 37.18116 124.44412 41082 ft 553 kts 89°
2026-04-24 10:33 37.18327 124.54058 41083 ft 553 kts 89°
2026-04-24 10:34 37.18530 124.63696 41087 ft 553 kts 89°
2026-04-24 10:34 37.18734 124.73322 41084 ft 553 kts 89°
2026-04-24 10:35 37.18934 124.82970 41088 ft 554 kts 89°
2026-04-24 10:35 37.19129 124.92632 41085 ft 554 kts 89°
2026-04-24 10:36 37.19310 125.02228 41078 ft 554 kts 90°
2026-04-24 10:36 37.19486 125.11889 41087 ft 554 kts 90°
2026-04-24 10:37 37.19654 125.21545 41089 ft 553 kts 90°
2026-04-24 10:37 37.19815 125.31200 41090 ft 554 kts 90°
2026-04-24 10:38 37.19969 125.40862 41084 ft 555 kts 90°
2026-04-24 10:38 37.19632 125.50482 41081 ft 550 kts 106°
2026-04-24 10:39 37.17169 125.59495 41101 ft 546 kts 114°
2026-04-24 10:39 37.14534 125.68435 41088 ft 548 kts 113°
2026-04-24 10:40 37.11941 125.77421 41089 ft 548 kts 113°
2026-04-24 10:40 37.10946 125.82032 41102 ft 552 kts 101°
2026-04-24 10:40 37.10464 125.86814 41082 ft 554 kts 97°
2026-04-24 10:41 37.09682 125.96409 41089 ft 554 kts 98°
2026-04-24 10:41 37.09191 126.06028 41082 ft 555 kts 90°
2026-04-24 10:42 37.09352 126.15627 41085 ft 555 kts 90°
2026-04-24 10:42 37.09374 126.25279 41064 ft 555 kts 90°
2026-04-24 10:42 37.09962 126.30051 41087 ft 556 kts 73°
2026-04-24 10:43 37.11431 126.34512 41075 ft 552 kts 58°
2026-04-24 10:43 37.13679 126.38383 41082 ft 547 kts 43°
2026-04-24 10:43 37.16175 126.41973 41065 ft 550 kts 53°
2026-04-24 10:43 37.18002 126.46202 41064 ft 555 kts 68°
2026-04-24 10:44 37.18992 126.50874 41049 ft 556 kts 83°
2026-04-24 10:44 37.20223 126.60406 41069 ft 556 kts 68°
2026-04-24 10:44 37.21989 126.64707 41092 ft 554 kts 52°
2026-04-24 10:45 37.24487 126.68333 41063 ft 546 kts 38°
2026-04-24 10:45 37.27544 126.71057 41062 ft 535 kts 22°
2026-04-24 10:45 37.30958 126.72735 41060 ft 522 kts
2026-04-24 10:45 37.34511 126.73285 41059 ft 508 kts 353°
2026-04-24 10:46 37.37960 126.72700 41057 ft 494 kts 338°
2026-04-24 10:46 37.41076 126.71065 41061 ft 481 kts 323°
2026-04-24 10:46 37.43657 126.68509 41053 ft 468 kts 308°
2026-04-24 10:46 37.45531 126.65233 41054 ft 458 kts 292°
2026-04-24 10:47 37.46583 126.61493 41063 ft 451 kts 279°
2026-04-24 10:47 37.47695 126.53729 41075 ft 452 kts 277°
2026-04-24 10:48 37.48364 126.45887 41091 ft 450 kts 265°
2026-04-24 10:48 37.48010 126.38031 41073 ft 450 kts 268°
2026-04-24 10:49 37.48393 126.30208 41060 ft 451 kts 270°
2026-04-24 10:49 37.48036 126.26323 40972 ft 446 kts 255°
2026-04-24 10:49 37.46845 126.22751 40552 ft 445 kts 240°
2026-04-24 10:49 37.45016 126.19597 39960 ft 447 kts 234°
2026-04-24 10:50 37.43001 126.16593 39367 ft 450 kts 231°
2026-04-24 10:50 37.40990 126.13575 38797 ft 451 kts 234°
2026-04-24 10:50 37.39099 126.10421 38063 ft 453 kts 237°
2026-04-24 10:50 37.37257 126.07202 37351 ft 453 kts 237°
2026-04-24 10:51 37.35429 126.03981 36678 ft 452 kts 237°
2026-04-24 10:51 37.33527 126.00841 36026 ft 452 kts 232°
2026-04-24 10:51 37.31340 125.97993 35346 ft 455 kts 224°
2026-04-24 10:51 37.28830 125.95522 34550 ft 461 kts 218°
2026-04-24 10:52 37.26197 125.93198 33716 ft 466 kts 217°
2026-04-24 10:52 37.23507 125.90865 32786 ft 470 kts 217°
2026-04-24 10:52 37.20802 125.88525 31898 ft 474 kts 217°
2026-04-24 10:52 37.18078 125.86170 31037 ft 477 kts 216°
2026-04-24 10:53 37.15326 125.83837 30215 ft 480 kts 213°
2026-04-24 10:53 37.12269 125.82124 29250 ft 484 kts 197°
2026-04-24 10:53 37.08938 125.81489 28311 ft 486 kts 180°
2026-04-24 10:53 37.05587 125.81985 27409 ft 487 kts 165°
2026-04-24 10:54 37.02471 125.83568 26533 ft 482 kts 149°
2026-04-24 10:54 36.99878 125.86061 25681 ft 462 kts 133°
2026-04-24 10:54 36.98038 125.89175 24865 ft 443 kts 116°
2026-04-24 10:54 36.97036 125.92689 24067 ft 424 kts 98°
2026-04-24 10:55 36.96958 125.96295 23192 ft 407 kts 80°
2026-04-24 10:55 36.97792 125.99565 22275 ft 391 kts 60°
2026-04-24 10:55 36.99444 126.02202 21390 ft 378 kts 39°
2026-04-24 10:55 37.01659 126.03827 20522 ft 366 kts 18°
2026-04-24 10:56 37.04138 126.04256 19687 ft 357 kts 355°
2026-04-24 10:56 37.06504 126.03563 18872 ft 350 kts 335°
2026-04-24 10:56 37.08510 126.01899 18029 ft 344 kts 321°
2026-04-24 10:56 37.10169 125.99759 17114 ft 339 kts 310°
2026-04-24 10:57 37.11574 125.97419 16225 ft 333 kts 307°
2026-04-24 10:57 37.12789 125.94975 15383 ft 328 kts 300°
2026-04-24 10:57 37.13863 125.92480 14543 ft 323 kts 299°
2026-04-24 10:57 37.15156 125.90240 13744 ft 313 kts 320°
2026-04-24 10:58 37.16916 125.88766 13186 ft 296 kts 335°
2026-04-24 10:58 37.18165 125.88233 13044 ft 278 kts 352°
2026-04-24 10:58 37.20610 125.88645 12645 ft 266 kts 26°
2026-04-24 10:58 37.21619 125.89502 12220 ft 267 kts 43°
2026-04-24 10:59 37.22657 125.91482 11465 ft 281 kts 69°
2026-04-24 10:59 37.22869 125.93926 10937 ft 287 kts 96°
2026-04-24 10:59 37.22299 125.96313 10529 ft 287 kts 110°
2026-04-24 10:59 37.21749 125.98706 10116 ft 284 kts 98°
2026-04-24 11:00 37.21492 126.01157 9661 ft 283 kts 94°
2026-04-24 11:00 37.21311 126.03607 9239 ft 282 kts 94°
2026-04-24 11:00 37.21150 126.06054 8796 ft 280 kts 94°
2026-04-24 11:00 37.20997 126.08484 8365 ft 279 kts 94°
2026-04-24 11:01 37.20848 126.10903 7940 ft 278 kts 94°
2026-04-24 11:01 37.20701 126.13319 7507 ft 277 kts 94°
2026-04-24 11:01 37.20556 126.15719 7100 ft 275 kts 94°
2026-04-24 11:01 37.20412 126.18110 6688 ft 274 kts 94°
2026-04-24 11:02 37.20269 126.20473 6393 ft 268 kts 95°
2026-04-24 11:02 37.20131 126.22758 6181 ft 259 kts 95°
2026-04-24 11:02 37.19996 126.24977 5929 ft 252 kts 95°
2026-04-24 11:02 37.19866 126.27138 5648 ft 246 kts 96°
2026-04-24 11:03 37.19736 126.29266 5300 ft 244 kts 96°
2026-04-24 11:03 37.19605 126.31389 4948 ft 243 kts 96°
2026-04-24 11:03 37.19475 126.33497 4594 ft 242 kts 96°
2026-04-24 11:03 37.19346 126.35587 4232 ft 240 kts 96°
2026-04-24 11:04 37.19216 126.37675 3879 ft 239 kts 96°
2026-04-24 11:04 37.19087 126.39751 3534 ft 238 kts 96°
2026-04-24 11:04 37.18961 126.41786 3404 ft 227 kts 96°
2026-04-24 11:04 37.18845 126.43688 3387 ft 211 kts 96°
2026-04-24 11:05 37.18734 126.45476 3394 ft 202 kts 97°
2026-04-24 11:05 37.18624 126.47221 3405 ft 201 kts 97°
2026-04-24 11:05 37.18512 126.48975 3404 ft 202 kts 97°
2026-04-24 11:05 37.18401 126.50730 3367 ft 202 kts 96°
2026-04-24 11:06 37.18304 126.52481 3094 ft 200 kts 94°
2026-04-24 11:06 37.18447 126.54218 2784 ft 202 kts 77°
2026-04-24 11:06 37.19057 126.55812 2492 ft 203 kts 58°
2026-04-24 11:06 37.19852 126.57275 2193 ft 203 kts 55°
2026-04-24 11:07 37.21555 126.59990 1731 ft 192 kts 41°
2026-04-24 11:07 37.22688 126.60869 1725 ft 191 kts 21°
2026-04-24 11:07 37.23984 126.61188 1727 ft 191 kts 360°
2026-04-24 11:08 37.25282 126.60906 1727 ft 190 kts 339°
2026-04-24 11:08 37.26432 126.60122 1726 ft 188 kts 324°
2026-04-24 11:08 37.27500 126.59173 1726 ft 188 kts 322°
2026-04-24 11:08 37.28560 126.58212 1724 ft 188 kts 323°
2026-04-24 11:09 37.29619 126.57261 1733 ft 188 kts 323°
2026-04-24 11:09 37.30695 126.56314 1958 ft 189 kts 323°
2026-04-24 11:09 37.31772 126.55359 2197 ft 190 kts 323°
2026-04-24 11:09 37.32857 126.54396 2430 ft 192 kts 323°
2026-04-24 11:10 37.33945 126.53429 2469 ft 192 kts 323°
2026-04-24 11:10 37.35029 126.52460 2308 ft 190 kts 323°
2026-04-24 11:10 37.36076 126.51523 2025 ft 180 kts 323°
2026-04-24 11:10 37.37059 126.50650 1780 ft 170 kts 323°
2026-04-24 11:11 37.38020 126.49796 1549 ft 165 kts 322°
2026-04-24 11:11 37.38957 126.48962 1330 ft 163 kts 323°
2026-04-24 11:11 37.39838 126.48178 1116 ft 152 kts 322°
2026-04-24 11:11 37.40681 126.47428 916 ft 141 kts 322°
2026-04-24 11:12 37.41451 126.46741 729 ft 130 kts 323°
2026-04-24 11:12 37.42160 126.46110 581 ft 125 kts 323°
2026-04-24 11:12 37.42880 126.45465 414 ft 125 kts 322°
2026-04-24 11:12 37.43583 126.44836 254 ft 127 kts 323°
2026-04-24 11:13 37.44303 126.44197 103 ft 127 kts 323°
2026-04-24 11:13 37.45013 126.43568 40 ft 118 kts 325°
2026-04-24 11:13 37.45520 126.43120 39 ft 49 kts 325°
2026-04-24 11:13 37.45654 126.43002 39 ft 19 kts 325°
2026-04-24 11:14 37.45768 126.42902 39 ft 21 kts 325°
2026-04-24 11:14 37.45894 126.42791 37 ft 20 kts 325°
2026-04-24 11:14 37.46032 126.42734 39 ft 22 kts 351°
2026-04-24 11:14 37.46181 126.42709 39 ft 18 kts 354°
2026-04-24 11:15 37.46281 126.42704 39 ft 15 kts 12°
2026-04-24 11:15 37.46329 126.42808 39 ft 16 kts 114°
2026-04-24 11:15 37.46237 126.42906 39 ft 20 kts 145°
2026-04-24 11:15 37.46111 126.43018 39 ft 25 kts 144°
2026-04-24 11:16 37.45970 126.43143 39 ft 26 kts 144°
2026-04-24 11:16 37.45868 126.43250 39 ft 14 kts 114°
2026-04-24 11:16 37.45910 126.43367 39 ft 18 kts 55°
2026-04-24 11:16 37.45992 126.43513 39 ft 23 kts 54°
2026-04-24 11:17 37.46093 126.43693 39 ft 27 kts 54°
2026-04-24 11:17 37.46211 126.43900 39 ft 30 kts 54°
2026-04-24 11:17 37.46295 126.44050 39 ft 17 kts 55°
2026-04-24 11:17 37.46340 126.44091 39 ft 5 kts 358°
2026-04-24 11:18 37.46390 126.44056 39 ft 11 kts 325°
2026-04-24 11:18 37.46470 126.43987 39 ft 16 kts 325°
2026-04-24 11:18 37.46567 126.43900 39 ft 15 kts 325°
2026-04-24 11:18 37.46645 126.43816 39 ft 13 kts 297°
2026-04-24 11:19 37.46659 126.43749 39 ft 4 kts 314°
2026-04-24 11:19 37.46695 126.43719 39 ft 6 kts 332°
2026-04-24 11:19 37.46725 126.43699 39 ft 3 kts 331°
2026-04-24 11:19 37.46736 126.43691 39 ft 0 kts 331°
2026-04-24 11:20 37.46737 126.43691 39 ft 0 kts 331°